Hourly Weather Kozlivshchyna

Today, 25 October, Sunday

Time Temperature Precipitation Wind Pressure Humidity
00:00 +11°C° 0 mm 3 mps 750 mmHg 79%
01:00 +11°C° 0 mm 3 mps 751 mmHg 82%
02:00 +11°C° 0 mm 3 mps 751 mmHg 86%
03:00 +10°C° 0 mm 3 mps 751 mmHg 89%
04:00 +10°C° 0 mm 3 mps 751 mmHg 92%
05:00 +10°C° 0 mm 3 mps 752 mmHg 95%
06:00 +10°C° 0 mm 3 mps 752 mmHg 93%
07:00 +10°C° 0 mm 3 mps 753 mmHg 91%
08:00 +11°C° 0 mm 4 mps 753 mmHg 89%
09:00 +12°C° 0 mm 4 mps 754 mmHg 80%
10:00 +13°C° 0 mm 3 mps 754 mmHg 71%
11:00 +16°C° 0 mm 3 mps 754 mmHg 62%
12:00 +16°C° 0 mm 3 mps 754 mmHg 58%
13:00 +16°C° 0 mm 3 mps 754 mmHg 55%
14:00 +17°C° 0 mm 3 mps 755 mmHg 52%
15:00 +16°C° 0 mm 2 mps 755 mmHg 56%
16:00 +14°C° 0 mm 2 mps 755 mmHg 61%
17:00 +13°C° 0 mm 1 mps 755 mmHg 66%
18:00 +12°C° 0 mm 1 mps 755 mmHg 69%
19:00 +12°C° 0 mm 1 mps 756 mmHg 71%
20:00 +11°C° 0 mm 1 mps 756 mmHg 73%
21:00 +11°C° 0 mm 1 mps 756 mmHg 75%
22:00 +10°C° 0 mm 2 mps 756 mmHg 77%
23:00 +9°C° 0 mm 2 mps 756 mmHg 79%

Tomorrow, 26 October, Monday

Time Temperature Precipitation Wind Pressure Humidity
00:00 +9°C° 0 mm 2 mps 756 mmHg 80%
01:00 +9°C° 0 mm 2 mps 756 mmHg 81%
02:00 +9°C° 0 mm 2 mps 757 mmHg 83%
03:00 +8°C° 0 mm 2 mps 757 mmHg 83%
04:00 +8°C° 0 mm 2 mps 757 mmHg 84%
05:00 +8°C° 0 mm 2 mps 757 mmHg 84%
06:00 +9°C° 0 mm 3 mps 757 mmHg 81%
07:00 +9°C° 0 mm 3 mps 757 mmHg 78%
08:00 +10°C° 0 mm 3 mps 757 mmHg 75%
09:00 +11°C° 0 mm 3 mps 757 mmHg 69%
10:00 +13°C° 0 mm 3 mps 757 mmHg 63%
11:00 +14°C° 0 mm 4 mps 757 mmHg 57%
12:00 +15°C° 0 mm 4 mps 757 mmHg 54%
13:00 +15°C° 0 mm 4 mps 757 mmHg 52%
14:00 +17°C° 0 mm 4 mps 756 mmHg 50%
15:00 +15°C° 0 mm 4 mps 756 mmHg 53%
16:00 +14°C° 0 mm 3 mps 756 mmHg 56%
17:00 +13°C° 0 mm 3 mps 756 mmHg 59%
18:00 +13°C° 0 mm 3 mps 756 mmHg 59%
19:00 +12°C° 0 mm 3 mps 756 mmHg 60%
20:00 +12°C° 0 mm 4 mps 757 mmHg 60%
21:00 +12°C° 0 mm 4 mps 757 mmHg 62%
22:00 +11°C° 0 mm 4 mps 757 mmHg 63%
23:00 +11°C° 0 mm 4 mps 757 mmHg 65%

Day after tomorrow, 27 October, Tuesday

Time Temperature Precipitation Wind Pressure Humidity
00:00 +11°C° 0 mm 4 mps 757 mmHg 66%
01:00 +10°C° 0 mm 4 mps 757 mmHg 67%
02:00 +10°C° 0 mm 4 mps 757 mmHg 67%
03:00 +10°C° 0 mm 4 mps 757 mmHg 68%
04:00 +8°C° 0 mm 4 mps 757 mmHg 68%
05:00 +8°C° 0 mm 4 mps 757 mmHg 68%
06:00 +8°C° 0 mm 4 mps 757 mmHg 66%
07:00 +9°C° 0 mm 5 mps 757 mmHg 65%
08:00 +9°C° 0 mm 5 mps 757 mmHg 63%
09:00 +10°C° 0 mm 5 mps 758 mmHg 58%
10:00 +12°C° 0 mm 5 mps 758 mmHg 54%
11:00 +14°C° 0 mm 6 mps 758 mmHg 49%
12:00 +14°C° 0 mm 6 mps 758 mmHg 47%
13:00 +15°C° 0 mm 6 mps 757 mmHg 46%
14:00 +15°C° 0 mm 6 mps 757 mmHg 44%
15:00 +14°C° 0 mm 5 mps 757 mmHg 47%
16:00 +13°C° 0 mm 4 mps 757 mmHg 51%
17:00 +12°C° 0 mm 4 mps 757 mmHg 55%
18:00 +12°C° 0 mm 4 mps 758 mmHg 56%
19:00 +11°C° 0 mm 4 mps 758 mmHg 57%
20:00 +10°C° 0 mm 5 mps 758 mmHg 58%
21:00 +10°C° 0 mm 4 mps 758 mmHg 60%
22:00 +10°C° 0 mm 4 mps 758 mmHg 62%
23:00 +8°C° 0 mm 4 mps 758 mmHg 63%

28 October, Wednesday

Time Temperature Precipitation Wind Pressure Humidity
00:00 +8°C° 0 mm 4 mps 758 mmHg 66%
01:00 +7°C° 0 mm 4 mps 758 mmHg 68%
02:00 +7°C° 0 mm 4 mps 758 mmHg 70%
03:00 +6°C° 0 mm 4 mps 758 mmHg 73%
04:00 +6°C° 0 mm 4 mps 758 mmHg 75%
05:00 +6°C° 0 mm 4 mps 759 mmHg 77%
06:00 +6°C° 0 mm 4 mps 759 mmHg 74%
07:00 +6°C° 0 mm 5 mps 759 mmHg 71%
08:00 +7°C° 0 mm 5 mps 759 mmHg 69%
09:00 +8°C° 0 mm 5 mps 759 mmHg 63%
10:00 +9°C° 0 mm 5 mps 758 mmHg 57%
11:00 +12°C° 0 mm 5 mps 758 mmHg 52%
12:00 +12°C° 0 mm 5 mps 758 mmHg 50%
13:00 +13°C° 0 mm 5 mps 758 mmHg 48%
14:00 +14°C° 0 mm 6 mps 758 mmHg 46%
15:00 +13°C° 0 mm 5 mps 757 mmHg 48%
16:00 +11°C° 0 mm 4 mps 757 mmHg 50%
17:00 +10°C° 0 mm 4 mps 757 mmHg 51%
18:00 +10°C° 0 mm 4 mps 757 mmHg 49%
19:00 +10°C° 0 mm 4 mps 757 mmHg 46%
20:00 +8°C° 0 mm 4 mps 757 mmHg 43%
21:00 +8°C° 0 mm 4 mps 757 mmHg 44%
22:00 +7°C° 0 mm 4 mps 757 mmHg 45%
23:00 +7°C° 0 mm 4 mps 757 mmHg 46%

29 October, Thursday

Time Temperature Precipitation Wind Pressure Humidity
00:00 +6°C° 0 mm 4 mps 757 mmHg 47%
01:00 +6°C° 0 mm 4 mps 757 mmHg 49%
02:00 +6°C° 0 mm 4 mps 757 mmHg 50%
03:00 +5°C° 0 mm 4 mps 757 mmHg 52%
04:00 +5°C° 0 mm 4 mps 757 mmHg 53%
05:00 +4°C° 0 mm 4 mps 757 mmHg 55%
06:00 +5°C° 0 mm 4 mps 757 mmHg 55%
07:00 +5°C° 0 mm 4 mps 757 mmHg 55%
08:00 +6°C° 0 mm 4 mps 757 mmHg 56%
09:00 +7°C° 0 mm 4 mps 757 mmHg 54%
10:00 +8°C° 0 mm 4 mps 757 mmHg 52%
11:00 +10°C° 0 mm 4 mps 757 mmHg 51%
12:00 +11°C° 0 mm 4 mps 756 mmHg 51%
13:00 +11°C° 0 mm 3 mps 756 mmHg 51%
14:00 +12°C° 0 mm 3 mps 756 mmHg 52%
15:00 +11°C° 0 mm 3 mps 756 mmHg 56%
16:00 +10°C° 0 mm 3 mps 756 mmHg 60%
17:00 +9°C° 0 mm 2 mps 756 mmHg 65%
18:00 +9°C° 0 mm 2 mps 756 mmHg 66%
19:00 +8°C° 0 mm 2 mps 756 mmHg 68%
20:00 +8°C° 0 mm 2 mps 756 mmHg 69%
21:00 +8°C° 0 mm 2 mps 756 mmHg 70%
22:00 +9°C° 0 mm 1 mps 756 mmHg 72%
23:00 +9°C° 0 mm 1 mps 756 mmHg 73%

30 October, Friday

Time Temperature Precipitation Wind Pressure Humidity
00:00 +8°C° 0 mm 1 mps 756 mmHg 73%
01:00 +8°C° 0 mm 1 mps 756 mmHg 74%
02:00 +8°C° 0 mm 1 mps 756 mmHg 75%
03:00 +8°C° 0 mm 1 mps 756 mmHg 76%
04:00 +8°C° 0 mm 1 mps 756 mmHg 77%
05:00 +8°C° 0 mm 1 mps 756 mmHg 78%
06:00 +8°C° 0 mm 1 mps 756 mmHg 76%
07:00 +9°C° 0 mm 1 mps 756 mmHg 75%
08:00 +9°C° 0 mm 1 mps 756 mmHg 73%
09:00 +10°C° 0 mm 1 mps 756 mmHg 67%
10:00 +12°C° 0 mm 1 mps 756 mmHg 62%
11:00 +13°C° 0 mm 1 mps 756 mmHg 56%
12:00 +14°C° 0 mm 2 mps 756 mmHg 55%
13:00 +14°C° 0 mm 2 mps 756 mmHg 54%
14:00 +13°C° 0 mm 3 mps 756 mmHg 52%
15:00 +12°C° 0 mm 3 mps 756 mmHg 57%
16:00 +12°C° 0 mm 2 mps 756 mmHg 61%
17:00 +10°C° 0 mm 2 mps 757 mmHg 66%
18:00 +9°C° 0 mm 2 mps 757 mmHg 69%
19:00 +9°C° 0 mm 2 mps 757 mmHg 71%
20:00 +8°C° 0 mm 2 mps 757 mmHg 74%
21:00 +8°C° 0 mm 2 mps 757 mmHg 75%
22:00 +7°C° 0 mm 2 mps 757 mmHg 77%
23:00 +7°C° 0 mm 2 mps 757 mmHg 78%
Show more